World > North America > United States > Texas

Walburg, Texas Regional Weather

Lat: 30.74N, Lon: 97.58W
Wx Zone: TXZ173Web Search
Walburg Weather Warning NWS WEATHER ALERT FOR THE WALBURG, TX AREA - Issued: 330 AM CDT Thu Apr 15 2021 Walburg Weather Warning  

If you are on your PC, you can easily pass this page to your phone by scanning the QR Code near the bottom with your camera.

Feedback


°F Click to change Walburg hourly weather to Imperial units.Click to change Walburg hourly weather to Metric units. °C
Walburg Weather Map
UTC Time: 4/15/2021, 14:25
Your Time:

Walburg, TX Regional Weather

Expires:202104151500;;593103
ASUS44 KSJT 151415
RWRSJT
WEST CENTRAL TEXAS REGIONAL WEATHER ROUNDUP
NATIONAL WEATHER SERVICE SAN ANGELO TX
900 AM CDT THU APR 15 2021

NOTE: "FAIR" INDICATES FEW OR NO CLOUDS BELOW 12,000 FEET WITH NO
SIGNIFICANT WEATHER AND/OR OBSTRUCTIONS TO VISIBILITY.


TXZ145-158-159-173-191-192-194-205-207-220-223-151500-
CENTRAL AND SOUTH CENTRAL TEXAS
  
CITY           SKY/WX    TMP DP  RH WIND       PRES   REMARKS
AUSTIN/BERGSTM LGT RAIN  61  61 100 NE14      29.99R FOG              
WACO           CLOUDY    61  55  81 E9G20     30.04R                  
HILLSBORO      CLOUDY    57  57 100 NE12      30.06R                  
TEMPLE         CLOUDY    59  59 100 NE10      30.03F                  
KILLEEN-GRAY   CLOUDY    59  58  95 E8        30.01R                  
FORT HOOD      CLOUDY    59  58  95 NE6       30.03R                  
GEORGETOWN     CLOUDY    60  59  96 NE8       30.04R FOG              
LAGO VISTA     NOT AVBL                                               
SAN MARCOS     CLOUDY    64  64 100 NE13      29.98S FOG              
NEW BRAUNFELS  CLOUDY    65  63  93 NE16      29.96S FOG              
RANDOLPH AFB   FOG       65  64  99 NE13      29.94S VSB 1            
SAN ANTONIO    LGT RAIN  66  63  90 NE12      29.96R FOG              
STINSON        LGT RAIN  67  65  93 NE10      29.94R FOG              
PLEASANTON     NOT AVBL                                               
LA GRANGE      CLOUDY    65  65  98 NE8       29.96S                  
GIDDINGS       CLOUDY    61  60  95 NE7G17    29.99F FOG              
$$


SKY/WX - Weather  TMP - Temperature  DP - Dew Point  RH - Relative Humidity
WIND - Wind Direction/Speed PRES - Barometric Pressure VSB - Visibility
WCI - Wind Chill Index E13G22 Wind - East Wind 13 mph/Gusts of 22 mph